Snowfall_Accumulation
0.9 0.7 0.7 0.8 0.8 1.2 1.2 1.4 1.9 1.9 1.2 0.9 1.1 0.7 1.0 1.1 0.0 0.4 0.1 0.1 0.2 0.0 0.1 0.1 0.0 0.0 0.0 0.0 0.0 0.0 0.0 0.0 0.0 0.0 0.0 0.0 0.0 0.0
1.0 0.9 0.6 0.7 0.9 1.2 1.4 1.3 1.2 1.8 1.7 0.9 1.3 1.3 1.0 1.0 0.4 0.6 0.4 0.2 0.2 0.2 0.1 0.1 0.1 0.0 0.1 0.1 0.1 0.1 0.0 0.0 0.0 0.0 0.0 0.0 0.0 0.0
1.0 1.0 0.8 0.7 0.8 0.9 1.5 1.5 1.3 1.5 1.9 1.0 1.0 1.1 1.0 1.0 0.9 1.0 0.5 0.5 0.6 0.4 0.3 0.1 0.2 0.2 0.1 0.1 0.1 0.1 0.1 0.1 0.1 0.1 0.0 0.0 0.0 0.0
0.9 0.9 0.8 0.6 0.7 1.0 1.5 1.6 1.2 1.2 1.9 1.8 1.3 1.5 1.3 1.1 0.9 1.1 1.0 0.6 0.6 0.4 0.4 0.2 0.3 0.3 0.4 0.4 0.4 0.3 0.2 0.1 0.1 0.1 0.1 0.0 0.0 0.0
0.9 0.9 1.0 1.0 1.0 1.0 1.6 1.9 1.4 1.3 1.5 2.0 2.0 1.4 1.3 1.2 1.0 0.8 0.9 0.7 0.5 0.3 0.1 0.2 0.3 0.5 0.7 0.7 0.5 0.4 0.4 0.3 0.3 0.2 0.2 0.1 0.1 0.1
0.8 1.0 1.2 1.2 1.7 1.9 2.2 2.6 2.2 2.0 2.1 2.5 2.7 2.5 2.2 1.6 1.5 1.4 1.3 1.1 0.8 0.6 0.7 0.7 0.6 0.8 0.7 0.6 0.4 0.5 0.5 0.6 0.7 0.6 0.4 0.4 0.4 0.3
1.3 1.2 1.5 1.8 1.8 2.1 2.3 3.2 3.0 3.3 3.6 4.2 4.3 3.6 2.7 2.3 1.7 1.6 1.8 1.6 0.9 0.9 1.7 1.0 1.0 0.7 0.6 0.3 0.3 0.4 0.6 0.8 0.8 1.0 0.9 0.7 0.5 0.4
2.2 2.2 1.9 1.8 1.8 1.7 2.1 2.9 3.9 5.2 6.3 6.4 5.6 4.3 2.8 1.9 1.6 2.1 3.1 3.6 3.3 1.4 1.9 1.0 0.7 0.8 0.5 0.5 0.4 0.4 0.8 1.0 1.3 1.4 1.6 1.3 1.0 0.9
3.2 2.9 2.5 2.2 2.1 1.7 1.6 2.2 2.7 3.4 4.4 4.7 4.4 3.1 2.4 2.4 3.3 4.1 4.1 4.5 3.9 2.3 2.6 2.4 1.1 1.5 0.7 0.6 0.6 0.6 0.7 1.1 1.2 1.5 1.6 1.5 1.3 1.1
3.0 2.4 2.3 1.7 1.6 2.1 2.5 3.1 2.0 1.7 1.4 1.6 2.0 1.9 2.0 2.5 4.0 5.8 6.0 4.9 3.1 2.1 2.5 4.3 2.7 1.9 1.0 0.8 0.6 0.6 0.8 1.2 1.4 1.7 1.6 1.6 1.5 1.3
2.2 1.8 1.9 1.6 1.7 3.1 4.4 4.5 2.1 1.1 0.8 1.2 1.7 1.9 2.2 2.5 3.0 5.1 6.3 7.2 5.6 2.9 2.3 3.7 2.5 2.1 1.3 1.1 1.0 0.6 0.8 0.9 1.2 1.3 1.4 1.3 1.3 1.4
1.8 1.4 1.5 1.8 2.6 4.0 4.9 4.9 3.5 1.8 1.6 1.4 1.5 1.2 1.0 1.2 1.9 3.7 7.1 10.7 9.6 6.5 2.9 4.0 4.2 4.9 5.0 1.4 1.2 0.9 1.0 0.6 0.9 1.1 0.9 1.0 1.2 1.5
2.5 2.0 1.5 2.3 3.6 4.2 4.2 3.7 3.7 3.5 2.9 2.3 2.1 1.8 1.1 1.1 1.3 1.7 3.6 9.3 13.5 9.8 4.3 8.0 10.4 7.2 8.9 4.6 1.6 1.3 1.4 2.3 2.3 2.2 1.6 1.6 2.0 2.7
3.6 2.2 2.3 3.3 3.7 3.6 3.1 2.9 3.3 3.4 3.5 3.7 3.6 3.3 3.1 2.5 2.1 2.4 2.7 3.8 5.9 7.7 5.7 9.2 15.4 11.9 13.2 10.6 5.1 3.4 2.7 3.3 4.8 4.7 3.2 3.3 4.0 3.7
2.7 2.9 3.4 3.2 3.2 3.0 2.8 2.8 2.9 2.9 3.7 5.0 4.9 4.2 3.3 3.1 2.9 2.9 2.9 2.9 2.5 2.8 3.7 5.5 10.3 11.2 13.4 13.2 8.4 4.9 5.4 4.8 4.8 5.5 5.0 5.9 5.4 4.7
3.1 2.9 2.6 2.3 2.4 2.7 2.5 2.4 2.7 3.8 5.1 5.8 5.6 4.5 3.7 3.7 3.7 3.8 5.5 5.5 6.2 5.1 3.8 3.8 5.1 9.3 11.5 8.8 9.2 8.0 7.2 8.3 7.2 6.0 5.5 4.9 4.7 4.5
4.8 4.1 3.2 3.0 3.2 3.3 3.0 3.0 2.8 3.6 4.7 5.4 5.8 5.7 5.1 4.7 4.7 4.8 6.3 7.3 8.6 7.1 6.2 4.7 3.8 4.5 6.5 8.7 10.0 8.1 7.5 8.4 8.8 8.0 8.4 7.0 4.0 3.3
5.4 6.0 4.8 3.7 4.2 4.0 4.4 4.6 4.2 4.3 5.1 6.0 6.7 6.7 7.0 6.9 6.9 6.1 7.1 8.6 8.9 7.1 6.6 6.3 6.6 7.3 7.4 6.8 7.0 8.9 8.7 9.7 9.8 8.5 9.4 11.9 8.5 3.2
5.7 5.7 5.2 5.2 5.0 5.1 5.3 5.5 5.4 4.8 5.6 7.2 7.8 7.9 7.8 7.9 8.0 8.1 8.2 8.9 8.4 7.1 6.9 6.7 8.9 13.4 14.3 9.5 6.4 7.7 11.6 12.3 10.6 10.3 10.4 12.1 12.9 6.0
4.7 4.9 4.7 4.9 5.4 6.3 6.5 6.0 6.0 5.5 5.8 6.9 7.3 7.5 8.2 8.9 8.7 8.6 8.7 9.4 9.7 8.5 7.4 6.5 8.0 13.0 18.3 15.7 12.2 9.8 9.2 13.0 15.0 15.7 13.3 9.5 7.4 3.0
4.6 4.7 4.6 4.8 5.7 6.6 7.1 7.2 6.8 7.0 6.9 7.7 8.1 8.1 8.9 10.0 9.2 8.0 8.6 9.0 10.1 10.1 9.2 7.1 6.0 7.9 12.1 15.7 14.4 9.9 10.0 8.9 11.9 18.7 18.5 16.7 14.4 10.9
4.7 4.7 4.9 5.2 5.8 6.7 7.1 7.7 7.7 7.1 7.5 7.7 8.0 8.5 9.0 10.1 10.3 9.5 9.5 10.2 10.0 9.5 8.8 7.1 6.7 8.0 11.6 15.4 13.0 9.2 9.1 8.7 8.2 8.1 11.2 15.4 25.7 26.0
5.6 5.7 5.8 5.8 6.3 6.8 7.1 7.6 8.0 7.8 7.8 9.1 9.5 9.8 10.3 10.7 9.9 10.2 10.1 10.3 10.6 9.9 9.6 9.1 8.2 8.5 9.5 10.8 11.7 10.4 9.0 7.8 8.0 9.0 10.9 9.7 8.1 9.4